This is the latest recevied weather packets stored in our database for station/object WA9NNN-10. If no packets are shown the sender has not sent any weather packets the latest 10 day(s).
| Time | Temp. | Humidity | Pressure | Rain* | Wind** | Luminosity | Snow |
|---|---|---|---|---|---|---|---|
| 1777926698 | 27.22° C | 35% | 998.2 hPa | 0 mm | - | - | - |
| 1777926397 | 27.78° C | 34% | 998.3 hPa | 0 mm | - | - | - |
| 1777926097 | 27.78° C | 34% | 998.4 hPa | 0 mm | - | - | - |
| 1777925797 | 27.78° C | 34% | 998.3 hPa | 0 mm | - | - | - |
| 1777925498 | 27.78° C | 33% | 998.5 hPa | 0 mm | - | - | - |
| 1777925197 | 27.78° C | 33% | 998.4 hPa | 0 mm | - | - | - |
| 1777924898 | 27.78° C | 33% | 998.7 hPa | 0 mm | - | - | - |
| 1777924597 | 27.22° C | 33% | 998.8 hPa | 0 mm | - | - | - |
| 1777924297 | 27.78° C | 31% | 998.9 hPa | 0 mm | - | - | - |
| 1777923997 | 28.33° C | 30% | 999 hPa | 0 mm | - | - | - |
| 1777923697 | 28.89° C | 30% | 999.1 hPa | 0 mm | - | - | - |
| 1777923397 | 29.44° C | 29% | 999.1 hPa | 0 mm | - | - | - |
| 1777923097 | 28.89° C | 31% | 999.1 hPa | 0 mm | - | - | - |
| 1777922797 | 28.33° C | 31% | 999.2 hPa | 0 mm | - | - | - |
| 1777922497 | 28.33° C | 31% | 999.4 hPa | 0 mm | - | - | - |
| 1777922197 | 28.33° C | 31% | 999.4 hPa | 0 mm | - | - | - |
| 1777921897 | 28.89° C | 29% | 999.4 hPa | 0 mm | - | - | - |
| 1777921597 | 28.89° C | 29% | 999.3 hPa | 0 mm | - | - | - |
| 1777921299 | 28.89° C | 28% | 999.4 hPa | 0 mm | - | - | - |
| 1777920997 | 28.89° C | 28% | 999.3 hPa | 0 mm | - | - | - |
| 1777920697 | 28.33° C | 28% | 999.3 hPa | 0 mm | - | - | - |
| 1777920397 | 28.89° C | 28% | 999.3 hPa | 0 mm | - | - | - |
| 1777920098 | 28.89° C | 29% | 999.4 hPa | 0 mm | - | - | - |
| 1777919797 | 28.89° C | 28% | 999.3 hPa | 0 mm | - | - | - |
| 1777919497 | 28.33° C | 27% | 999.4 hPa | 0 mm | - | - | - |
* Rain latest hour (hover to see other rain measurements)
** Current wind speed in m/s (hover to see current wind gust speed)